Location: IoMAS Observatory
(54.1780°N, 4.6265°W)
Time: 22:19:06
(UTC+01:00)

ISS - Visible Passes

Search period start: 23 January 2021 00:00
Search period end: 02 February 2021 00:00
Orbit: 418 x 421 km, 51.6° (Epoch: 24 January)

Date Brightness Start Highest point End Pass type
(mag) Time Alt. Az. Time Alt. Az. Time Alt. Az.
23 Jan -2.5 19:31:03 10° SW 19:34:03 29° SSE 19:34:48 26° SE visible
23 Jan -0.6 21:07:12 10° WSW 21:07:47 14° WSW 21:07:47 14° WSW visible
24 Jan -2.0 18:44:06 10° SSW 18:46:50 23° SSE 18:49:25 11° E visible
24 Jan -2.6 20:19:55 10° WSW 20:22:23 39° SW 20:22:23 39° SW visible
25 Jan -3.1 19:32:40 10° WSW 19:35:55 44° SSE 19:36:58 32° ESE visible
25 Jan -0.7 21:09:11 10° W 21:09:57 16° W 21:09:57 16° W visible
26 Jan -2.7 18:45:29 10° SW 18:48:38 37° SSE 18:51:32 12° E visible
26 Jan -2.8 20:21:51 10° W 20:24:30 45° SW 20:24:30 45° SW visible
27 Jan -3.4 19:34:30 10° WSW 19:37:49 55° S 19:39:03 33° ESE visible
27 Jan -0.8 21:11:11 10° W 21:12:02 16° W 21:12:02 16° W visible
28 Jan -3.1 18:47:11 10° WSW 18:50:28 51° S 18:53:37 11° E visible
28 Jan -2.8 20:23:47 10° W 20:26:35 44° SW 20:26:35 44° SW visible
29 Jan -3.3 19:36:24 10° W 19:39:43 54° S 19:41:09 29° ESE visible
29 Jan -0.8 21:13:14 10° W 21:14:08 16° WSW 21:14:08 16° WSW visible
30 Jan -3.2 18:49:01 10° W 18:52:20 56° S 18:55:40 10° ESE visible
30 Jan -2.4 20:25:45 10° W 20:28:44 34° SSW 20:28:44 34° SSW visible
31 Jan -2.8 19:38:18 10° W 19:41:31 42° SSW 19:43:24 21° SE visible
31 Jan -0.6 21:15:38 10° WSW 21:16:23 13° WSW 21:16:23 13° WSW visible
01 Feb -2.9 18:50:52 10° W 18:54:09 49° S 18:57:26 10° ESE visible
01 Feb -1.7 20:27:54 10° W 20:30:30 21° SSW 20:31:07 20° SSW visible
